Wind_Speed
43 46 60 55 51 45 42 34 35 45 38 33 37 36 36 31 33 29 31 26 18 22 26 29 30 20 18 26 29 27 29 29 28 23 23 23 19 22 24 21 18 14 12 13
45 62 52 51 48 42 45 39 43 45 39 32 36 37 32 26 28 31 22 21 20 20 22 27 30 24 19 17 25 28 29 27 23 21 23 20 16 20 22 20 13 11 13 13
59 59 49 48 44 43 45 44 46 45 36 31 32 40 30 23 24 15 15 17 23 25 28 28 28 18 13 17 21 26 25 23 21 21 21 16 14 19 20 19 12 10 8 13
59 54 21 51 46 45 45 46 43 42 35 25 3 9 24 26 26 20 21 20 18 22 23 28 11 13 14 16 20 23 22 19 20 21 17 13 13 16 17 13 16 10 8 6
57 47 59 29 41 47 53 38 38 36 32 32 39 19 26 24 29 23 23 28 24 26 21 7 7 12 15 15 19 19 17 18 19 18 13 10 12 15 15 15 15 10 6 4
48 45 43 61 31 33 33 32 30 27 31 18 42 14 30 30 18 16 16 11 12 18 11 8 10 12 14 17 17 15 15 17 16 12 10 9 11 13 13 14 19 9 3 2
29 43 32 39 46 41 31 25 5 6 8 7 23 15 32 24 24 21 17 11 11 11 7 9 9 10 11 12 13 12 14 14 12 8 7 8 10 10 13 16 13 8 1 8
31 22 49 41 40 40 48 41 15 6 4 5 19 13 33 13 12 25 11 16 13 8 8 5 6 9 11 12 9 12 11 10 7 5 6 7 7 10 14 9 8 7 8 10
31 32 9 48 37 33 33 49 38 12 9 1 6 25 28 27 24 17 18 14 12 6 3 6 7 10 8 7 12 9 9 6 4 3 3 5 5 9 10 8 8 8 8 10
9 19 32 22 30 44 37 21 35 29 4 3 7 15 21 18 19 7 15 14 12 5 2 7 9 8 7 9 7 6 5 3 2 2 2 3 5 10 8 9 10 8 8 10
37 13 2 33 38 46 43 34 19 28 20 6 1 12 29 22 20 19 15 14 8 1 4 6 8 7 8 7 5 5 3 2 1 1 2 2 4 6 9 7 5 6 8 11
36 24 33 30 12 24 45 50 42 24 18 20 17 29 16 6 11 10 18 12 6 3 6 7 8 7 6 8 4 3 2 1 1 2 3 3 3 6 7 5 7 8 10 11
10 29 21 30 30 23 33 49 52 44 17 24 8 15 20 18 18 21 21 13 7 7 8 9 7 7 8 8 4 1 1 2 2 4 4 4 6 6 10 9 11 12 13 13
7 21 41 29 25 34 30 31 46 43 33 35 37 33 26 19 14 16 23 15 9 5 8 9 9 9 9 9 5 1 2 3 3 6 4 5 7 9 9 13 16 17 17 16
15 12 28 46 44 21 21 30 37 52 48 36 45 35 32 16 17 19 23 16 13 6 9 12 10 11 10 10 6 3 3 5 5 7 6 8 8 11 11 16 19 18 19 19
20 12 18 32 40 47 39 16 31 39 45 42 37 32 29 16 26 23 23 14 10 7 6 12 12 12 11 10 8 6 5 6 7 9 7 10 11 15 16 14 14 16 16 14
23 16 21 22 35 30 34 53 30 26 40 43 40 37 27 23 28 25 23 16 11 11 8 11 13 10 13 12 9 8 6 6 8 10 9 12 13 15 15 13 10 11 12 14
27 27 19 13 14 10 37 40 38 31 26 37 42 37 35 27 25 26 30 21 17 16 11 11 15 13 17 15 12 10 8 6 8 10 11 15 15 17 17 15 14 14 13 13
21 21 8 6 17 6 17 13 26 36 28 29 38 42 36 27 29 24 25 22 20 14 12 12 15 11 17 16 13 11 10 9 8 9 11 13 16 15 16 15 13 12 10 10
7 20 19 1 5 7 13 26 19 27 34 27 38 45 41 31 35 33 28 23 24 21 15 15 18 15 14 16 15 13 11 10 9 9 10 11 13 15 14 13 13 11 10 10
19 6 23 19 7 3 18 21 25 25 20 19 40 45 39 36 30 23 24 25 21 23 20 18 15 15 14 12 11 14 13 11 11 9 9 10 12 12 13 13 12 11 10 10
9 5 6 9 6 3 9 7 22 18 22 25 36 40 41 39 28 26 26 28 25 29 26 20 17 18 18 16 13 15 15 14 12 12 10 8 10 11 12 11 12 12 11 12
5 7 3 3 6 8 16 15 15 13 25 22 34 42 43 37 32 29 30 28 27 24 28 22 19 17 18 18 16 15 18 17 14 13 14 12 11 10 10 10 11 11 10 10
11 14 11 3 12 6 9 12 11 12 13 23 26 31 35 40 33 33 34 30 28 26 32 27 23 21 16 18 19 16 17 15 15 14 14 16 14 13 11 10 11 12 12 10
15 18 16 16 3 11 6 7 12 12 12 14 29 28 37 40 33 35 32 36 30 27 31 31 23 19 20 22 23 21 19 16 15 16 15 17 19 17 15 13 11 10 11 12
14 11 11 17 15 10 1 4 8 11 14 19 25 30 36 40 35 31 30 31 32 29 30 32 24 19 18 28 25 23 20 16 13 12 14 15 20 21 19 16 14 12 11 11
Wind_Direction
221 222 226 227 235 241 248 246 257 266 268 272 272 275 279 278 280 276 292 266 257 257 252 263 267 270 285 280 283 279 282 284 288 294 303 301 298 321 327 319 314 306 301 300
216 226 231 233 232 232 234 236 249 261 268 270 276 278 274 262 279 295 281 257 257 253 256 260 266 268 284 282 274 273 277 286 290 297 301 299 299 316 334 337 326 302 296 297
221 229 224 226 227 227 235 240 249 255 272 275 285 282 269 257 291 285 269 264 258 261 264 270 276 273 270 273 271 270 279 289 289 295 300 292 307 323 332 340 343 326 313 315
224 218 219 226 225 230 237 241 248 257 268 274 328 297 275 266 276 276 281 289 272 270 276 283 249 259 261 263 267 271 285 285 285 296 295 292 313 324 332 335 341 333 334 326
222 224 222 223 228 230 240 240 245 255 264 272 272 270 278 271 279 276 276 291 268 264 284 257 244 244 247 260 261 275 282 279 290 296 294 297 311 320 332 336 343 336 320 319
233 232 232 230 231 229 235 241 252 265 259 263 264 257 290 274 273 294 296 269 261 264 257 237 241 239 245 257 272 277 276 281 292 296 286 295 309 320 334 334 335 322 319 177
229 223 226 233 227 228 226 231 244 258 214 223 255 253 254 278 290 275 292 277 258 241 237 231 239 253 264 270 274 268 275 288 298 281 282 296 318 330 338 333 336 339 141 155
206 219 220 216 221 218 223 219 196 201 183 206 240 244 255 265 284 298 267 262 239 235 216 243 257 261 258 271 260 280 281 293 283 275 294 308 339 352 349 1 1 32 114 138
209 227 212 224 213 211 217 211 215 248 258 302 209 246 264 261 273 271 251 246 227 220 229 254 238 244 250 266 279 271 282 275 277 292 293 347 0 8 31 28 40 71 103 128
238 224 232 225 222 220 215 218 209 224 228 219 249 241 235 253 253 269 236 215 220 220 259 245 220 212 241 265 254 262 261 256 267 266 345 2 39 40 40 53 57 68 115 126
219 219 239 207 213 209 208 210 193 206 222 178 180 254 249 257 265 279 253 203 225 214 235 224 204 208 247 231 227 247 232 224 216 252 65 36 56 60 37 33 59 70 117 136
215 234 244 222 247 227 218 213 209 207 203 229 235 260 247 225 239 255 219 210 190 201 227 207 197 236 213 203 204 221 199 167 191 78 69 62 46 25 16 49 92 98 113 131
199 216 226 244 242 226 217 217 219 219 220 237 196 254 248 255 270 260 216 221 171 191 228 210 212 217 197 192 197 188 145 148 172 103 95 88 67 46 59 98 106 113 111 119
313 230 218 220 218 219 221 220 215 219 217 227 237 249 255 264 250 195 197 204 182 191 217 202 205 199 186 185 193 161 111 153 152 107 119 101 85 84 84 109 104 102 115 114
349 271 231 230 231 225 241 226 214 215 221 216 233 242 246 244 216 197 200 199 204 220 229 206 202 199 180 183 186 155 136 155 145 123 141 107 109 105 111 115 111 108 106 106
353 323 253 241 231 236 240 217 225 225 222 228 235 239 236 229 204 207 201 207 209 196 225 211 203 194 175 177 181 160 149 145 141 134 139 116 122 117 120 128 131 114 104 105
314 319 329 256 230 236 242 239 227 225 228 226 223 231 229 219 204 215 215 218 222 212 213 224 217 199 176 170 171 160 150 139 139 139 135 121 132 125 119 134 123 135 116 111
298 300 290 291 216 199 245 243 234 229 230 232 233 232 235 237 223 227 227 232 232 225 217 211 213 200 178 171 172 169 157 145 136 140 137 136 141 128 122 124 125 122 117 121
271 274 229 251 205 242 242 253 228 229 235 235 237 235 233 238 222 210 218 236 241 229 205 206 206 195 183 175 173 171 169 158 143 142 145 149 150 144 133 126 126 129 130 129
244 229 210 188 244 195 203 226 213 209 224 234 229 228 232 230 220 225 229 236 238 226 204 192 195 196 175 172 179 178 177 172 159 148 152 157 157 160 153 144 137 135 145 144
345 217 217 240 292 269 216 203 215 183 198 216 217 221 219 232 237 227 228 224 225 218 202 187 200 206 184 178 182 184 184 176 178 164 154 163 169 156 163 168 159 152 150 150
295 330 172 219 255 264 215 167 186 211 205 200 208 215 219 223 238 226 227 215 199 193 200 191 187 191 192 190 196 195 182 188 189 179 167 168 174 162 158 167 173 172 165 154
253 12 294 150 158 134 75 105 136 170 204 199 205 211 213 215 224 226 219 210 202 202 199 195 181 191 198 194 197 195 185 192 189 191 183 177 180 167 158 161 162 168 174 161
316 324 344 123 173 209 108 93 119 168 174 206 204 211 208 213 217 214 216 214 207 204 202 197 186 188 198 199 190 178 195 195 192 192 194 187 187 175 172 168 157 157 165 164
346 335 314 333 56 163 134 85 132 137 135 184 211 213 212 211 211 210 222 216 213 210 205 198 198 195 196 199 180 184 189 188 187 191 197 190 191 181 176 174 166 162 161 165
360 359 355 323 322 348 229 231 111 106 123 169 191 210 206 205 211 205 201 214 213 213 210 200 198 201 194 192 186 184 183 175 172 183 193 191 192 188 181 180 179 177 177 175
Height
3072 3076 3058 3072 3079 3085 3090 3090 3088 3085 3092 3094 3090 3090 3088 3087 3088 3088 3086 3085 3085 3086 3087 3089 3089 3089 3088 3089 3090 3090 3088 3086 3085 3082 3079 3076 3072 3068 3063 3057 3053 3051 3049 3047
3064 3043 3061 3071 3076 3080 3080 3083 3081 3081 3086 3090 3085 3082 3083 3082 3082 3082 3080 3080 3081 3081 3082 3084 3084 3084 3084 3085 3086 3085 3084 3083 3080 3078 3075 3072 3069 3065 3060 3054 3050 3048 3046 3043
3042 3043 3060 3064 3069 3073 3074 3076 3077 3079 3084 3084 3081 3074 3075 3078 3078 3077 3076 3076 3076 3077 3079 3079 3078 3079 3080 3082 3081 3081 3080 3078 3076 3074 3072 3068 3066 3062 3057 3053 3048 3045 3043 3040
3040 3049 3052 3058 3058 3067 3067 3071 3077 3078 3081 3079 3078 3073 3069 3074 3074 3074 3074 3073 3073 3073 3073 3073 3072 3074 3076 3078 3077 3077 3076 3074 3072 3070 3068 3065 3063 3059 3055 3051 3048 3043 3041 3039
3021 3039 3046 3046 3048 3063 3060 3074 3075 3077 3076 3076 3072 3077 3062 3070 3067 3068 3069 3068 3067 3069 3069 3069 3070 3072 3074 3074 3074 3074 3072 3071 3069 3067 3064 3062 3060 3057 3052 3049 3046 3041 3040 3039
3030 3035 3038 3040 3053 3060 3066 3071 3072 3073 3073 3069 3064 3073 3052 3061 3062 3063 3063 3063 3063 3065 3066 3067 3068 3069 3071 3071 3071 3070 3069 3067 3066 3063 3061 3060 3058 3054 3051 3047 3044 3040 3038 3039
3023 3026 3032 3038 3048 3056 3061 3066 3069 3069 3066 3062 3061 3065 3054 3054 3057 3060 3061 3061 3062 3064 3064 3065 3065 3066 3067 3068 3067 3067 3066 3064 3062 3061 3059 3058 3055 3052 3049 3046 3042 3039 3037 3038
3013 3019 3018 3025 3030 3039 3044 3053 3056 3060 3058 3055 3057 3055 3047 3052 3053 3055 3057 3058 3059 3061 3061 3062 3063 3064 3065 3065 3064 3064 3063 3061 3060 3059 3058 3056 3054 3051 3048 3045 3041 3039 3038 3039
3009 3008 3012 3017 3024 3034 3034 3035 3050 3052 3051 3051 3047 3046 3045 3048 3051 3050 3052 3053 3057 3058 3059 3059 3061 3062 3062 3062 3062 3061 3060 3059 3059 3058 3057 3054 3053 3051 3049 3045 3042 3041 3041 3041
3006 3008 3011 3017 3024 3026 3028 3036 3047 3049 3050 3050 3042 3042 3042 3044 3046 3046 3049 3051 3055 3056 3056 3057 3058 3059 3060 3060 3060 3059 3058 3058 3058 3057 3055 3054 3053 3052 3050 3047 3044 3043 3043 3044
3001 3003 3003 3007 3002 3008 3023 3028 3031 3038 3040 3041 3044 3035 3038 3041 3043 3046 3048 3051 3053 3054 3055 3056 3057 3058 3058 3058 3059 3058 3057 3057 3056 3056 3055 3053 3053 3052 3051 3049 3047 3046 3046 3047
2993 2996 2996 2998 3003 3007 3013 3018 3023 3024 3027 3031 3035 3027 3036 3038 3041 3043 3047 3049 3051 3053 3054 3055 3055 3056 3056 3057 3058 3057 3056 3056 3056 3055 3055 3053 3054 3053 3051 3049 3048 3048 3048 3049
2986 2987 2991 2996 3002 3002 3000 3003 3013 3022 3026 3027 3032 3025 3030 3034 3037 3040 3045 3047 3049 3051 3053 3052 3053 3054 3054 3056 3057 3056 3055 3056 3056 3055 3055 3054 3055 3054 3052 3051 3050 3050 3051 3052
2981 2978 2979 2976 2985 2992 2994 3000 3007 3016 3021 3020 3020 3024 3029 3033 3034 3035 3041 3045 3048 3050 3050 3051 3052 3053 3053 3055 3056 3055 3055 3055 3056 3056 3056 3055 3056 3056 3055 3054 3054 3054 3055 3056
2977 2972 2977 2977 2985 2987 2992 2995 3001 3003 3008 3015 3015 3023 3027 3031 3033 3035 3039 3043 3046 3048 3049 3050 3050 3051 3051 3054 3055 3055 3055 3055 3056 3057 3057 3057 3058 3058 3058 3058 3058 3059 3059 3060
2973 2971 2971 2969 2978 2982 2986 2991 2996 3000 3007 3012 3016 3018 3024 3028 3031 3034 3038 3042 3044 3046 3047 3049 3049 3050 3051 3053 3055 3055 3056 3056 3057 3058 3058 3058 3059 3060 3061 3062 3062 3063 3063 3064
2973 2974 2972 2961 2973 2982 2985 2976 2989 2995 2999 3005 3008 3014 3020 3025 3029 3033 3036 3039 3042 3044 3046 3046 3048 3049 3050 3052 3054 3056 3056 3057 3058 3059 3059 3060 3061 3062 3063 3064 3065 3066 3067 3068
2969 2972 2974 2967 2971 2978 2960 2974 2983 2988 2993 3000 3005 3011 3016 3021 3026 3030 3033 3037 3039 3042 3044 3045 3046 3048 3049 3051 3053 3056 3057 3057 3059 3060 3061 3062 3064 3064 3065 3067 3068 3069 3070 3070
2965 2966 2968 2967 2965 2963 2965 2973 2977 2982 2989 2996 3001 3007 3012 3017 3022 3025 3029 3033 3037 3040 3043 3045 3046 3048 3049 3050 3053 3055 3057 3058 3059 3061 3062 3063 3066 3067 3067 3069 3071 3072 3073 3074
2956 2959 2966 2966 2964 2962 2965 2965 2969 2977 2984 2989 2993 3000 3006 3010 3014 3020 3026 3030 3033 3039 3042 3043 3044 3046 3048 3049 3052 3055 3057 3059 3059 3061 3063 3064 3066 3068 3070 3070 3072 3074 3075 3076
2957 2960 2961 2966 2966 2960 2961 2962 2967 2971 2979 2979 2983 2991 2998 3002 3007 3016 3021 3025 3029 3035 3040 3041 3042 3044 3047 3049 3051 3054 3057 3059 3060 3060 3062 3065 3067 3068 3070 3072 3073 3074 3076 3077
2963 2960 2961 2964 2964 2962 2957 2959 2963 2965 2968 2971 2975 2982 2989 2997 3003 3009 3014 3020 3024 3029 3035 3038 3040 3042 3045 3047 3050 3052 3056 3058 3060 3060 3062 3064 3067 3068 3070 3072 3074 3075 3077 3078
2967 2960 2956 2961 2962 2961 2958 2959 2959 2960 2963 2965 2970 2976 2983 2989 2996 3004 3010 3014 3019 3024 3030 3034 3036 3040 3043 3045 3047 3050 3054 3056 3059 3060 3062 3064 3066 3068 3069 3072 3075 3076 3077 3079
2960 2956 2956 2956 2959 2959 2959 2959 2959 2958 2959 2960 2965 2971 2977 2984 2991 2998 3005 3010 3015 3019 3025 3030 3032 3036 3040 3043 3045 3049 3051 3054 3057 3060 3061 3063 3066 3068 3069 3071 3073 3076 3078 3079
2959 2954 2953 2955 2955 2957 2958 2956 2955 2957 2956 2958 2962 2967 2973 2980 2987 2991 2999 3005 3011 3016 3020 3025 3029 3033 3036 3041 3044 3046 3049 3052 3056 3058 3060 3062 3065 3067 3069 3072 3074 3076 3078 3081
2953 2951 2955 2955 2954 2953 2957 2958 2955 2957 2957 2957 2958 2963 2969 2975 2981 2987 2992 3000 3006 3011 3016 3021 3026 3031 3035 3039 3042 3045 3048 3051 3054 3057 3059 3061 3063 3065 3068 3071 3073 3075 3078 3080